Weather History for Havre, MT

Change the Weather History Date:

Monday, October 7, 2013

  Actual Average Record
Temperature  
Mean Temperature 54 °F 48 °F  
Max Temperature 75 °F 63 °F 90 °F (1980)
Min Temperature 32 °F 34 °F 9 °F (2000)
Degree Days  
Heating Degree Days 11 17  
Month to date heating degree days 119 110  
Since 1 July heating degree days 287 467  
Cooling Degree Days 0 0  
Month to date cooling degree days 0 0  
Year to date cooling degree days 445 386  
Growing Degree Days 4 (Base 50)    
Moisture  
Dew Point 29 °F    
Average Humidity 50    
Maximum Humidity 82    
Minimum Humidity 17    
Precipitation  
Precipitation 0.00 in 0.03 in 0.55 in (1959)
Month to date precipitation 0.00 0.18  
Year to date precipitation 17.15 9.97  
Snow  
Snow 0.00 in 0.10 in 4.20 in (1959)
Month to date snowfall 0.0 0.3  
Since 1 July snowfall 0.0 0.6  
Since 1 September snowfall 0.0 0.6  
Snow Depth 0.00 in    
Sea Level Pressure  
Sea Level Pressure 29.72 in    
Wind  
Wind Speed 10 mph (WSW)    
Max Wind Speed 24 mph    
Max Gust Speed 30 mph    
Visibility 10 miles    
Events      
T = Trace of Precipitation, MM = Missing Value Source: NWS Daily Summary

Daily Weather History Graph

Daily Weather History Graph

Search for Another Location

Airport:

Trip Planner

Search our weather history database for the weather conditions in past years. The results will help you decide how hot, cold, wet, or windy it might be!

Date:

Astronomy

Oct. 07, 2013 Rise Set
Actual Time 7:27 AM MDT 6:45 PM MDT
Civil Twilight 6:56 AM MDT 7:16 PM MDT
Nautical Twilight 6:19 AM MDT 7:52 PM MDT
Astronomical Twilight 5:43 AM MDT 8:29 PM MDT
Moon 10:36 AM MDT (10/7) 8:16 PM MDT (10/7)
Length of Visible Light 12h 20m
Length of Day
11h 17m
Waxing Crescent, 9% of the Moon is Illuminated
Oct 7
Waxing Crescent
Oct 11
First Quarter
Oct 18
Full
Oct 26
Last Quarter
Nov 3
New

Hourly Weather History & Observations

Time (MDT) Temp. Windchill Dew Point Humidity Pressure Visibility Wind Dir Wind Speed Gust Speed Precip Events Conditions
12:53 AM 44.1 °F - 28.9 °F 55% 29.88 in 10.0 mi Calm Calm - N/A   Clear
1:53 AM 39.0 °F - 28.9 °F 67% 29.87 in 10.0 mi Calm Calm - N/A   Clear
2:53 AM 34.0 °F 29.8 °F 28.0 °F 79% 29.86 in 10.0 mi SW 4.6 mph - N/A   Clear
3:53 AM 37.0 °F 33.3 °F 28.0 °F 70% 29.83 in 10.0 mi WSW 4.6 mph - N/A   Clear
4:53 AM 35.1 °F - 28.0 °F 76% 29.81 in 10.0 mi Calm Calm - N/A   Clear
5:53 AM 35.1 °F - 28.0 °F 76% 29.81 in 10.0 mi Calm Calm - N/A   Clear
6:53 AM 34.0 °F 31.0 °F 28.9 °F 82% 29.81 in 10.0 mi ESE 3.5 mph - N/A   Clear
7:53 AM 34.0 °F 31.0 °F 28.9 °F 82% 29.81 in 10.0 mi South 3.5 mph - N/A   Clear
8:53 AM 43.0 °F 40.3 °F 32.0 °F 65% 29.79 in 10.0 mi SW 4.6 mph - N/A   Clear
9:53 AM 50.0 °F - 34.0 °F 54% 29.77 in 10.0 mi SW 4.6 mph - N/A   Clear
10:53 AM 62.1 °F - 30.0 °F 30% 29.73 in 10.0 mi SW 17.3 mph 24.2 mph N/A   Clear
11:53 AM 66.0 °F - 30.0 °F 26% 29.72 in 10.0 mi West 11.5 mph - N/A   Clear
12:53 PM 69.1 °F - 32.0 °F 25% 29.67 in 10.0 mi SW 10.4 mph - N/A   Clear
1:53 PM 75.0 °F - 28.9 °F 18% 29.64 in 10.0 mi West 17.3 mph 24.2 mph N/A   Clear
2:53 PM 73.0 °F - 26.1 °F 17% 29.64 in 10.0 mi West 17.3 mph - N/A   Clear
3:53 PM 73.9 °F - 26.1 °F 17% 29.62 in 10.0 mi WSW 13.8 mph - N/A   Clear
4:53 PM 71.1 °F - 28.0 °F 20% 29.61 in 10.0 mi WSW 9.2 mph - N/A   Clear
5:53 PM 69.1 °F - 28.0 °F 22% 29.61 in 10.0 mi WNW 15.0 mph - N/A   Clear
6:53 PM 63.0 °F - 27.0 °F 26% 29.65 in 10.0 mi WNW 19.6 mph - N/A   Clear
7:53 PM 59.0 °F - 27.0 °F 29% 29.67 in 10.0 mi West 15.0 mph - N/A   Clear
8:53 PM 53.1 °F - 28.0 °F 38% 29.68 in 10.0 mi SW 9.2 mph - N/A   Clear
9:53 PM 55.9 °F - 28.9 °F 36% 29.66 in 10.0 mi West 12.7 mph - N/A   Clear
10:53 PM 52.0 °F - 30.0 °F 43% 29.65 in 10.0 mi SSW 12.7 mph - N/A   Clear
11:53 PM 48.9 °F - 30.0 °F 48% 29.67 in 10.0 mi SW 13.8 mph - N/A   Clear